Tracking 28920 objects as of 24-May-2024
HD Live streaming from Space Station
objects crossing your sky now

TITAN 3C TRANSTAGE R/B

Track TITAN 3C TRANSTAGE R/B now!


NORAD ID: 2770
Int'l Code: 1967-040F
Perigee: 7,163.9 km
Apogee: 112,535.2 km
Inclination: 17.3 °
Period: 2,826.5 minutes
Semi major axis: 66220 km
RCS: 3.1623 m2 (large)
Launch date: April 28, 1967
Source: United States (US)
Launch site: AIR FORCE EASTERN TEST RANGE (AFETR)

Note: This is a ROCKET BODY
Your satellite tracking list
Your tracking list is empty




NASA's NSSDC Master Catalog

Two Line Element Set (TLE):
1 02770U 67040F   24146.37663630 -.00000164  00000-0  00000-0 0  9996
2 02770  17.2777 233.6410 7956088 309.4012   0.9647  0.50946433 19505
Source of the keplerian elements: AFSPC